Regional Weather Roundup
Issued by NWS Mobile, AL

Home | Current Version | Previous Version | Text Only | Print | Product List | Glossary On
Versions: 1 2 3 4 5 6 7 8 9 10 11 12 13 14 15 16 17 18 19 20 21 22 23 24 25 26 27 28
000
ASUS44 KMOB 301212
RWRMOB
REGIONAL WEATHER ROUNDUP
NATIONAL WEATHER SERVICE MOBILE AL
700 AM CDT SAT APR 30 2016

NOTE: "FAIR" INDICATES FEW OR NO CLOUDS BELOW 12,000 FEET WITH NO
      SIGNIFICANT WEATHER AND/OR OBSTRUCTIONS TO VISIBILITY.

  * THESE STATIONS ARE PART OF THE UNIVERSITY OF SOUTH ALABAMA
    MESONET AND ARE NOT UNDER NWS OR FAA QUALITY CONTROL.

ALZ061>064-301300-
COASTAL ALABAMA

CITY           SKY/WX    TMP DP  RH WIND       PRES   REMARKS
MOBILE REG APT CLOUDY    74  73  97 SE10      29.87F
6HR MIN TEMP:  73; 6HR MAX TEMP:  74;

BROOKLEY FIELD CLOUDY    75  73  93 SE9       29.88R
6HR MIN TEMP:  74; 6HR MAX TEMP:  75;

USA CAMPUS*    NOT AVBL
DOG RIVER*     NOT AVBL


CITY           SKY/WX    TMP DP  RH WIND       PRES   REMARKS
MOUNT VERNON*  NOT AVBL
SARALAND*      NOT AVBL
BAY MINETTE*   NOT AVBL
LOXLEY*        NOT AVBL
ROBERTSDALE*   NOT AVBL
FAIRHOPE*      NOT AVBL
ELBERTA*       NOT AVBL
FOLEY*         NOT AVBL
GRAND BAY*     NOT AVBL
DAUPHIN ISLND* NOT AVBL
BON SCOUR NWR* NOT AVBL
GULF SHORES    CLOUDY    74  74 100 E13G20    29.87R

$$

ALZ051>060-301300-
INTERIOR SOUTHWEST AND SOUTH CENTRAL ALABAMA

CITY           SKY/WX    TMP DP  RH WIND       PRES   REMARKS
GREENVILLE     CLOUDY    65  62  90 CALM      29.91R
6HR MIN TEMP:  63; 6HR MAX TEMP:  67;

EVERGREEN      FOG       65  64  97 CALM      29.92R VSB 1/4
6HR MIN TEMP:  62; 6HR MAX TEMP:  68;

CASTLEBERRY*   NOT AVBL
ATMORE*        NOT AVBL
DIXIE*         NOT AVBL
ANDALUSIA/OPP  CLOUDY    69  64  84 CALM      29.89S
6HR MIN TEMP:  67; 6HR MAX TEMP:  71;

ANDALUSIA*     NOT AVBL
FLORALA APT    FOG       67  66  97 CALM      29.91R VSB 1/4
6HR MIN TEMP:  65; 6HR MAX TEMP:  70; 6HR PCP:  0.01;

FLORALA*       NOT AVBL

$$

FLZ001>006-301300-
WESTERN FLORIDA PANHANDLE

CITY           SKY/WX    TMP DP  RH WIND       PRES   REMARKS
PENSACOLA      CLOUDY    75  72  90 SE10      29.87R
6HR MIN TEMP:  74; 6HR MAX TEMP:  76;

NAS PENSACOLA  NOT AVBL
MILTON         NOT AVBL
WHTNG S FIELD  CLOUDY    74  72  93 SE7       29.89
6HR MIN TEMP:  73; 6HR MAX TEMP:  75;



CITY           SKY/WX    TMP DP  RH WIND       PRES   REMARKS
WALNUT HILL*   NOT AVBL
JAY*           NOT AVBL
DUKE FIELD     CLOUDY    70  70 100 SE6       29.89R
CRESTVIEW      CLOUDY    70  69  97 VRB3      29.91R FOG
6HR MIN TEMP:  69; 6HR MAX TEMP:  71;

VALPARAISO     PTSUNNY   73  71  95 SE8       29.89R
6HR MIN TEMP:  71; 6HR MAX TEMP:  74;

DESTIN         CLOUDY    75  74  96 SE10      29.89R
6HR MIN TEMP:  73; 6HR MAX TEMP:  76;


$$

MSZ076-079-301300-
INTERIOR SOUTHEAST MISSISSIPPI

CITY           SKY/WX    TMP DP  RH WIND       PRES   REMARKS
LEAKESVILLE*   NOT AVBL
AGRICOLA*      NOT AVBL

$$

MARINE OBSERVATIONS

STATION/POSITION TIME  TEMP    WIND        PRES    WAVE
                       AIR SEA DIR/SP/G            HT/PER
                 (UTC) (F)     (DEG/KT/KT) (MB)    (FT/S)
PASCAGOULA       1100   76     140/ 13/ 18 1009.7F
PETIT BOIS ISLND 1106   78     140/ 14/ 17 1010.8S
GRAND BAY        1000   76     140/ 15     1011.0F
KATRINA CUT      1100   75     150/ 14       N/A
CEDAR POINT      1100   75     150/ 12     1010.2S
E DAUPHIN ISLAND 1100   75     130/ 14/ 15 1010.2R
MIDDLE BAY LIGHT 1100   76     140/ 15     1010.5R
USCG MOBILE BAY  1100   74 77  120/  7/  9 1011.3R
STATE DOCKS      1100   74 73              1010.7R
MEAHER PARK      1100   72     140/  5     1010.2S
FORT MORGAN      1100   75     150/ 15/ 16 1010.2R
12 S ORANGE BCH  1150   75 74  140/ 12/ 14 1010.3R   3/ 6
PENSACOLA BAY    1100   80 70  100/  3/  6 1011.4R
64 S DAUPHIN ISL 1100   75 74  140/ 12/ 14 1010.3F

$$

SELECTED LOCATIONS ACROSS THE REGION

CITY           SKY/WX    TMP DP  RH WIND       PRES   REMARKS
NEW ORLEANS    CLOUDY    77  72  84 SE15      29.77S
GULFPORT       CLOUDY    76  73  91 SE14      29.84R
PASCAGOULA AP  CLOUDY    75  73  93 SE8       29.84R
PASCAGOULA*    NOT AVBL
HATTIESBURG    CLOUDY    74  70  87 SE7       29.85R
LAUREL         CLOUDY    70  66  88 E5        29.87R
MERIDIAN       CLOUDY    68  66  93 E7        29.87S
JACKSON        CLOUDY    71  67  87 CALM      29.84S
MONTGOMERY     SUNNY     67  63  87 CALM      29.91R
TROY           CLOUDY    68  64  87 CALM      29.92R
KINSTON*       NOT AVBL
GENEVA*        NOT AVBL
ASHFORD*       NOT AVBL
DOTHAN         SUNNY     69  67  93 E6        29.94R
PANAMA CITY    CLOUDY    71  70  96 E6        29.89S FOG

$$





USA.gov is the U.S. government's official web portal to all federal, state and local government web resources and services.